This is the latest recevied weather packets stored in our database for station/object KE5OYL. If no packets are shown the sender has not sent any weather packets the latest 10 day(s).
| Time | Temp. | Humidity | Pressure | Rain* | Wind** | Luminosity | Snow |
|---|---|---|---|---|---|---|---|
| 1777742987 | 22.78° C | 35% | 1022.8 hPa | 0 mm | - | 788 W/m² | - |
| 1777742684 | 22.22° C | 35% | 1022.7 hPa | 0 mm | - | 788 W/m² | - |
| 1777742380 | 21.11° C | 37% | 1022.6 hPa | 0 mm | - | 779 W/m² | - |
| 1777742076 | 21.11° C | 37% | 1022.7 hPa | 0 mm | - | 770 W/m² | - |
| 1777741774 | 21.11° C | 38% | 1022.9 hPa | 0 mm | - | 766 W/m² | - |
| 1777741470 | 21.67° C | 37% | 1022.8 hPa | 0 mm | - | 758 W/m² | - |
| 1777741166 | 21.67° C | 38% | 1023 hPa | 0 mm | - | 749 W/m² | - |
| 1777740864 | 20.56° C | 39% | 1023 hPa | 0 mm | - | 741 W/m² | - |
| 1777740560 | 21.67° C | 40% | 1022.9 hPa | 0 mm | - | 731 W/m² | - |
| 1777740257 | 21.67° C | 40% | 1022.9 hPa | 0 mm | - | 723 W/m² | - |
| 1777739953 | 21.11° C | 40% | 1023.1 hPa | 0 mm | - | 716 W/m² | - |
| 1777739644 | 20.56° C | 42% | 1023 hPa | 0 mm | - | 706 W/m² | - |
| 1777739342 | 21.11° C | 41% | 1023 hPa | 0 mm | - | 698 W/m² | - |
| 1777739038 | 21.11° C | 42% | 1022.7 hPa | 0 mm | - | 690 W/m² | - |
| 1777738735 | 20.56° C | 44% | 1022.8 hPa | 0 mm | - | 678 W/m² | - |
| 1777738431 | 20.56° C | 42% | 1023 hPa | 0 mm | - | 669 W/m² | - |
| 1777738130 | 20.56° C | 43% | 1023 hPa | 0 mm | - | 657 W/m² | - |
| 1777737828 | 20° C | 45% | 1023.1 hPa | 0 mm | - | 645 W/m² | - |
| 1777737526 | 20° C | 42% | 1022.8 hPa | 0 mm | - | 633 W/m² | - |
| 1777737224 | 20.56° C | 42% | 1022.8 hPa | 0 mm | - | 621 W/m² | - |
| 1777736919 | 20.56° C | 43% | 1022.7 hPa | 0 mm | - | 606 W/m² | - |
| 1777736311 | 20° C | 42% | 1022.7 hPa | 0 mm | - | 581 W/m² | - |
| 1777736008 | 19.44° C | 44% | 1023 hPa | 0 mm | - | 567 W/m² | - |
| 1777735705 | 18.89° C | 46% | 1023 hPa | 0 mm | - | 552 W/m² | - |
| 1777735403 | 20° C | 46% | 1022.8 hPa | 0 mm | - | 537 W/m² | - |
* Rain latest hour (hover to see other rain measurements)
** Current wind speed in m/s (hover to see current wind gust speed)